TimeMDT,TemperatureF,Dew PointF,Humidity,Sea Level PressureIn,VisibilityMPH,Wind Direction,Wind SpeedMPH,Gust SpeedMPH,PrecipitationIn,Events,Conditions,WindDirDegrees,DateUTC
12:15 AM,59.0,50.0,72,30.43,10.0,Calm,Calm,-,N/A,,Overcast,0,2013-08-02 06:15:00
12:35 AM,57.2,50.0,77,30.44,10.0,West,15.0,20.7,N/A,Thunderstorm,Overcast,270,2013-08-02 06:35:00
12:55 AM,55.4,53.6,94,30.45,10.0,WNW,12.7,25.3,N/A,Rain-Thunderstorm,Thunderstorms and Rain,290,2013-08-02 06:55:00
1:15 AM,51.8,46.4,82,30.45,7.0,WSW,10.4,-,0.03,Rain-Thunderstorm,Light Thunderstorms and Rain,240,2013-08-02 07:15:00
1:35 AM,50.0,50.0,100,30.47,7.0,WSW,8.1,20.7,0.08,Rain-Thunderstorm,Heavy Thunderstorms and Rain,240,2013-08-02 07:35:00
1:55 AM,50.0,50.0,100,30.49,4.0,West,10.4,16.1,0.19,Rain-Thunderstorm,Thunderstorms and Rain,270,2013-08-02 07:55:00
2:15 AM,50.0,50.0,100,30.49,4.0,SSW,4.6,-,0.09,Rain-Thunderstorm,Heavy Thunderstorms and Rain,200,2013-08-02 08:15:00
2:35 AM,50.0,50.0,100,30.48,4.0,ENE,3.5,-,0.17,Rain,Heavy Rain,70,2013-08-02 08:35:00
2:55 AM,50.0,50.0,100,30.46,10.0,ESE,6.9,-,0.20,Rain-Thunderstorm,Light Thunderstorms and Rain,110,2013-08-02 08:55:00
3:15 AM,50.0,50.0,100,30.44,10.0,East,9.2,18.4,N/A,Rain,Light Rain,80,2013-08-02 09:15:00
3:35 AM,50.0,50.0,100,30.43,10.0,East,5.8,-,N/A,,Overcast,90,2013-08-02 09:35:00
3:55 AM,50.0,48.2,94,30.43,10.0,Calm,Calm,-,N/A,,Scattered Clouds,0,2013-08-02 09:55:00
4:15 AM,50.0,46.4,87,30.42,10.0,Calm,Calm,-,N/A,,Mostly Cloudy,0,2013-08-02 10:15:00
4:35 AM,50.0,46.4,87,30.41,10.0,SE,3.5,-,N/A,,Mostly Cloudy,140,2013-08-02 10:35:00
4:55 AM,50.0,48.2,94,30.41,10.0,ESE,6.9,-,N/A,,Mostly Cloudy,120,2013-08-02 10:55:00
5:15 AM,50.0,46.4,87,30.41,10.0,ESE,5.8,-,N/A,,Mostly Cloudy,120,2013-08-02 11:15:00
5:35 AM,48.2,46.4,93,30.40,10.0,SE,6.9,-,N/A,,Scattered Clouds,130,2013-08-02 11:35:00
5:55 AM,48.2,46.4,93,30.41,10.0,ESE,3.5,-,N/A,,Scattered Clouds,120,2013-08-02 11:55:00
6:35 AM,48.2,46.4,93,30.42,10.0,East,3.5,-,N/A,,Overcast,90,2013-08-02 12:35:00
6:55 AM,48.2,46.4,93,30.43,10.0,ESE,4.6,-,N/A,,Overcast,120,2013-08-02 12:55:00
7:15 AM,50.0,46.4,87,30.43,10.0,ESE,3.5,-,N/A,,Mostly Cloudy,110,2013-08-02 13:15:00
7:35 AM,50.0,46.4,87,30.43,10.0,Calm,Calm,-,N/A,,Scattered Clouds,0,2013-08-02 13:35:00
7:55 AM,50.0,46.4,87,30.44,10.0,Calm,Calm,-,N/A,,Mostly Cloudy,0,2013-08-02 13:55:00
8:15 AM,51.8,48.2,88,30.44,10.0,Calm,Calm,-,N/A,,Overcast,0,2013-08-02 14:15:00
8:35 AM,51.8,48.2,88,30.45,10.0,Calm,Calm,-,N/A,,Mostly Cloudy,0,2013-08-02 14:35:00
8:55 AM,53.6,50.0,88,30.45,10.0,Calm,Calm,-,N/A,,Scattered Clouds,0,2013-08-02 14:55:00
9:15 AM,55.4,50.0,82,30.45,10.0,Calm,Calm,-,N/A,Thunderstorm,Scattered Clouds,0,2013-08-02 15:15:00
9:35 AM,59.0,51.8,77,30.45,10.0,Calm,Calm,-,N/A,,Clear,0,2013-08-02 15:35:00
9:55 AM,60.8,48.2,63,30.45,10.0,Calm,Calm,-,N/A,,Clear,0,2013-08-02 15:55:00
10:15 AM,60.8,51.8,72,30.46,10.0,Calm,Calm,-,N/A,,Clear,0,2013-08-02 16:15:00
10:35 AM,62.6,50.0,63,30.45,10.0,SW,3.5,-,N/A,,Scattered Clouds,220,2013-08-02 16:35:00
10:55 AM,62.6,50.0,63,30.46,10.0,West,3.5,-,N/A,,Clear,260,2013-08-02 16:55:00
11:15 AM,64.4,50.0,59,30.45,10.0,West,4.6,-,N/A,,Clear,270,2013-08-02 17:15:00
11:35 AM,64.4,51.8,64,30.45,10.0,West,5.8,-,N/A,,Clear,260,2013-08-02 17:35:00
11:55 AM,66.2,50.0,56,30.45,10.0,West,6.9,-,N/A,,Clear,260,2013-08-02 17:55:00
12:15 PM,68.0,51.8,56,30.45,10.0,West,9.2,-,N/A,,Clear,260,2013-08-02 18:15:00
12:35 PM,68.0,50.0,52,30.45,10.0,WSW,9.2,-,N/A,,Clear,250,2013-08-02 18:35:00
12:55 PM,68.0,50.0,52,30.44,10.0,West,8.1,-,N/A,,Scattered Clouds,260,2013-08-02 18:55:00
1:15 PM,69.8,50.0,49,30.43,10.0,WSW,10.4,-,N/A,,Scattered Clouds,250,2013-08-02 19:15:00
1:35 PM,68.0,48.2,49,30.43,10.0,WSW,9.2,17.3,N/A,,Scattered Clouds,240,2013-08-02 19:35:00
1:55 PM,69.8,50.0,49,30.42,10.0,West,10.4,-,N/A,,Clear,260,2013-08-02 19:55:00
2:15 PM,69.8,50.0,49,30.42,10.0,West,9.2,-,N/A,,Clear,260,2013-08-02 20:15:00
2:35 PM,71.6,48.2,43,30.42,10.0,SW,11.5,-,N/A,,Clear,230,2013-08-02 20:35:00
2:55 PM,71.6,48.2,43,30.42,10.0,WSW,9.2,-,N/A,,Scattered Clouds,250,2013-08-02 20:55:00
3:15 PM,69.8,48.2,46,30.40,10.0,West,10.4,17.3,N/A,,Scattered Clouds,270,2013-08-02 21:15:00
3:35 PM,69.8,46.4,43,30.40,10.0,West,8.1,18.4,N/A,Thunderstorm,Thunderstorm,280,2013-08-02 21:35:00
3:55 PM,71.6,46.4,41,30.40,10.0,WSW,9.2,-,N/A,,Clear,250,2013-08-02 21:55:00
4:15 PM,71.6,46.4,41,30.40,10.0,SSW,4.6,-,N/A,,Scattered Clouds,200,2013-08-02 22:15:00
4:35 PM,69.8,50.0,49,30.38,10.0,South,3.5,-,N/A,,Scattered Clouds,190,2013-08-02 22:35:00
4:55 PM,69.8,46.4,43,30.38,10.0,Calm,Calm,-,N/A,,Mostly Cloudy,0,2013-08-02 22:55:00
5:15 PM,71.6,46.4,41,30.38,10.0,NW,8.1,-,N/A,,Scattered Clouds,310,2013-08-02 23:15:00
5:35 PM,69.8,44.6,40,30.38,10.0,WSW,8.1,-,N/A,,Scattered Clouds,250,2013-08-02 23:35:00
5:55 PM,69.8,44.6,40,30.38,10.0,West,9.2,18.4,N/A,,Scattered Clouds,270,2013-08-02 23:55:00
6:15 PM,69.8,46.4,43,30.38,10.0,West,9.2,19.6,N/A,,Scattered Clouds,280,2013-08-03 00:15:00
6:35 PM,68.0,46.4,46,30.40,10.0,West,11.5,18.4,N/A,Thunderstorm,Thunderstorm,280,2013-08-03 00:35:00
6:55 PM,68.0,48.2,49,30.40,10.0,WSW,9.2,-,N/A,,Scattered Clouds,250,2013-08-03 00:55:00
7:15 PM,68.0,48.2,49,30.40,10.0,West,9.2,-,N/A,,Clear,260,2013-08-03 01:15:00
7:35 PM,66.2,50.0,56,30.40,10.0,West,10.4,-,N/A,,Clear,260,2013-08-03 01:35:00
7:55 PM,64.4,50.0,59,30.40,10.0,West,10.4,-,N/A,Thunderstorm,Clear,260,2013-08-03 01:55:00
8:15 PM,64.4,50.0,59,30.41,10.0,West,6.9,-,N/A,,Clear,270,2013-08-03 02:15:00
8:35 PM,64.4,50.0,59,30.42,10.0,WSW,4.6,-,N/A,,Clear,240,2013-08-03 02:35:00
8:55 PM,64.4,50.0,59,30.42,10.0,Calm,Calm,-,N/A,,Mostly Cloudy,0,2013-08-03 02:55:00
9:15 PM,62.6,51.8,68,30.42,10.0,ESE,5.8,-,N/A,Thunderstorm,Scattered Clouds,120,2013-08-03 03:15:00
9:35 PM,62.6,51.8,68,30.43,10.0,Calm,Calm,-,N/A,,Scattered Clouds,0,2013-08-03 03:35:00
9:55 PM,62.6,51.8,68,30.44,10.0,ESE,3.5,-,N/A,,Mostly Cloudy,110,2013-08-03 03:55:00
10:15 PM,62.6,51.8,68,30.44,10.0,ESE,4.6,-,N/A,,Mostly Cloudy,120,2013-08-03 04:15:00
10:35 PM,60.8,51.8,72,30.44,10.0,Calm,Calm,-,N/A,,Scattered Clouds,0,2013-08-03 04:35:00
10:55 PM,62.6,51.8,68,30.44,10.0,SE,3.5,-,N/A,,Scattered Clouds,140,2013-08-03 04:55:00
11:15 PM,60.8,51.8,72,30.44,10.0,SE,3.5,-,N/A,,Mostly Cloudy,130,2013-08-03 05:15:00
11:35 PM,60.8,51.8,72,30.44,10.0,Calm,Calm,-,N/A,Thunderstorm,Scattered Clouds,0,2013-08-03 05:35:00
11:55 PM,60.8,51.8,72,30.44,10.0,East,3.5,-,N/A,,Scattered Clouds,80,2013-08-03 05:55:00